STARLINK-11731, 64371

Orbit data source: Space-Track

STARLINK-11731, 64371 is a payload satellite owned by SpaceX/Seattle (US) in LEO that was launched on Fri, 13 Jun 2025 UTC via an FALCON 9 launch vehicle from the Air Force Eastern Test Range (AFETR). Payload-class satellites include a variety of spacecraft equipped with specific instruments for various scientific and technological missions. These include communications satellites like Starlink; space stations such as the ISS; scientific satellites like the Hubble; Earth observation satellites from companies like Planet Labs, Umbra, and HawkEye 360; GPS; miniature CubeSats for education and research; and military/defense satellites.

Loading next visibility...
Identifier
64371, 2025-127B
Orbit
LEO
Country
Flag of USUS
Related business
Manufacturer
SpaceX/Seattle
Mission
Operational Commercial Communications
Bus & Motor
STARLINK V2MD, Unknown motor
Mass
960 kg wet, ~910 kg dry
Launch date (UTC)
2025-06-13 (10 months ago)
Launch vehicle
FALCON 9
Launch site
Air Force Eastern Test Range (AFETR)
Object type
Payload
Rocket body
Debris
Shape & HBR
Box + 2 Pan, 18.1 m
Radar Cross Section
36.964 m², Large (>1 m²)

Expand to show TLE details & history
Last TLE update: 5 hours ago

TLE from 5 hours ago
0 STARLINK-11731
1 64371U 25127B   26095.55019627  .00258896  00000-0  19541-2 0  9995
2 64371  42.9988 282.9165 0002137 236.8144 123.2519 15.70898621 47727
Epoch: 2026-04-05T13:12Z
TLE epoch observation values (Epoch: 2026-04-05T13:12:16.957Z)
Latitude
-0.00002°
Longitude
-109.00819°
Altitude
356.888 km
Speed
7.696 km/s
True Right ascension
18h 51m 39s
True Declination
0° 00' 00"
Sunlit
Object was in daylight at epoch
Visualization orbit readout
Latitude
Unknown
Longitude
Unknown
Altitude
Unknown
Speed
Unknown
Apparent Right ascension
Unknown
Apparent Declination
Unknown
Sunlit
N/A
Visualization observer readout
Local Sidereal Time
00:21:54
Azimuth
Unknown
Elevation
Unknown
Doppler factor
Unknown
Orbital elements
Apogee altitude
359.749 km
Perigee altitude
356.87 km
Semi-major axis
6,736.446 km
Eccentricity
0.00021
Inclination
42.9988°
RAAN
282.9165°
Arg. of periapsis
236.8144°
True anomaly
123.27238°
Mean anomaly
123.2519°
Eccentric anomaly
123.26214°
Mean motion
3.92552 °/min
Orbital period
91.71 mins
BSTAR
0.0019541
Loading maneuver chart data...
Computing Atmospheric mass density...
Loading historical data...
Loading historical data...
Loading historical data...
Loading historical data...
Loading historical data...
Loading historical data...
Loading historical data...

Documentation

Showing up to 5 results
|